| time (UTC) | temp C | wind direction | speed KPH | gust KPH | rain 1hr cm | rain 24hr cm | rain mn cm | humidity % | barometer mb |
| 20260507062921 | -17 | 250 | 0.0 | 4.8 | 0.00 | 0.00 | 0.00 | 81 | 1022.4 |
| 20260507062357 | -17 | 0 | 0.0 | 12.9 | 0.00 | 0.00 | 0.00 | 82 | 1022.5 |
| 20260507061834 | -17 | 222 | 0.0 | 12.9 | 0.00 | 0.00 | 0.00 | 82 | 1022.5 |
| 20260507061311 | -17 | 113 | 0.0 | 12.9 | 0.00 | 0.00 | 0.00 | 82 | 1022.6 |
| 20260507060749 | -17 | 0 | 0.0 | 0.0 | 0.00 | 0.00 | 0.00 | 81 | 1022.6 |
| 20260507060225 | -17 | 0 | 0.0 | 3.2 | 0.00 | 0.00 | 0.00 | 83 | 1022.6 |
| 20260507055702 | -17 | 215 | 0.0 | 3.2 | 0.00 | 0.00 | 0.00 | 84 | 1022.8 |
| 20260507055139 | -17 | 243 | 0.0 | 4.8 | 0.00 | 0.00 | 0.00 | 83 | 1022.8 |
| 20260507054616 | -17 | 268 | 0.0 | 4.8 | 0.00 | 0.00 | 0.00 | 82 | 1022.7 |
| 20260507054053 | -17 | 217 | 0.0 | 4.8 | 0.00 | 0.00 | 0.00 | 83 | 1022.8 |
| 20260507053530 | -17 | 233 | 0.0 | 3.2 | 0.00 | 0.00 | 0.00 | 85 | 1022.9 |
| 20260507053007 | -17 | 0 | 0.0 | 0.0 | 0.00 | 0.00 | 0.00 | 85 | 1022.9 |
| 20260507052444 | -17 | 0 | 0.0 | 0.0 | 0.00 | 0.00 | 0.00 | 84 | 1022.9 |
| 20260507051923 | -17 | 0 | 0.0 | 0.0 | 0.00 | 0.00 | 0.00 | 85 | 1022.9 |
| 20260507051358 | -17 | 0 | 0.0 | 0.0 | 0.00 | 0.00 | 0.00 | 84 | 1023.0 |
| 20260507050835 | -17 | 0 | 0.0 | 3.2 | 0.00 | 0.00 | 0.00 | 85 | 1023.0 |
| 20260507050312 | -17 | 92 | 0.0 | 3.2 | 0.00 | 0.00 | 0.00 | 84 | 1022.8 |
| 20260507045749 | -17 | 0 | 0.0 | 0.0 | 0.00 | 0.00 | 0.00 | 83 | 1023.0 |
| 20260507045226 | -17 | 266 | 0.0 | 9.7 | 0.00 | 0.00 | 0.00 | 83 | 1023.0 |
| 20260507044703 | -17 | 85 | 0.0 | 9.7 | 0.00 | 0.00 | 0.00 | 84 | 1023.0 |
| 20260507044140 | -17 | 0 | 0.0 | 9.7 | 0.00 | 0.00 | 0.00 | 85 | 1022.9 |
| 20260507043617 | -17 | 124 | 0.0 | 9.7 | 0.00 | 0.00 | 0.00 | 83 | 1022.9 |
| 20260507043054 | -17 | 294 | 0.0 | 6.4 | 0.00 | 0.00 | 0.00 | 84 | 1023.0 |
| 20260507042534 | -17 | 144 | 0.0 | 6.4 | 0.00 | 0.00 | 0.00 | 81 | 1022.9 |
| 20260507042008 | -17 | 246 | 0.0 | 3.2 | 0.00 | 0.00 | 0.00 | 80 | 1022.8 |
| 20260507041445 | -17 | 0 | 0.0 | 12.9 | 0.00 | 0.00 | 0.00 | 80 | 1022.9 |
| 20260507040923 | -17 | 93 | 0.0 | 12.9 | 0.00 | 0.00 | 0.00 | 75 | 1022.9 |
| 20260507040359 | -17 | 93 | 0.0 | 12.9 | 0.00 | 0.00 | 0.00 | 71 | 1022.9 |
| 20260507035836 | -17 | 116 | 6.4 | 12.9 | 0.00 | 0.00 | 0.00 | 68 | 1022.9 |
| 20260507035313 | -17 | 116 | 3.2 | 4.8 | 0.00 | 0.00 | 0.00 | 70 | 1022.9 |
| 20260507034750 | -17 | 107 | 0.0 | 3.2 | 0.00 | 0.00 | 0.00 | 71 | 1022.9 |
| 20260507034227 | -17 | 103 | 0.0 | 9.7 | 0.00 | 0.00 | 0.00 | 70 | 1023.0 |
| 20260507033704 | -17 | 99 | 0.0 | 9.7 | 0.00 | 0.00 | 0.00 | 71 | 1023.0 |
| 20260507033141 | -17 | 119 | 6.4 | 8.0 | 0.00 | 0.00 | 0.00 | 70 | 1022.9 |
| 20260507032618 | -17 | 128 | 3.2 | 6.4 | 0.00 | 0.00 | 0.00 | 70 | 1022.9 |
| 20260507032055 | -17 | 0 | 0.0 | 3.2 | 0.00 | 0.00 | 0.00 | 71 | 1023.0 |
| 20260507031532 | -17 | 105 | 0.0 | 8.0 | 0.00 | 0.00 | 0.00 | 71 | 1023.0 |
| 20260507031009 | -17 | 103 | 0.0 | 8.0 | 0.00 | 0.00 | 0.00 | 71 | 1022.9 |
| 20260507030446 | -17 | 100 | 1.6 | 8.0 | 0.00 | 0.00 | 0.00 | 70 | 1022.9 |
| 20260507025923 | -17 | 106 | 3.2 | 6.4 | 0.00 | 0.00 | 0.00 | 70 | 1022.9 |
| 20260507025401 | -17 | 89 | 0.0 | 8.0 | 0.00 | 0.00 | 0.00 | 71 | 1022.9 |
| 20260507024837 | -17 | 110 | 3.2 | 8.0 | 0.00 | 0.00 | 0.00 | 69 | 1022.8 |
| 20260507024314 | -17 | 116 | 0.0 | 8.0 | 0.00 | 0.00 | 0.00 | 69 | 1022.8 |
| 20260507023751 | -17 | 110 | 4.8 | 8.0 | 0.00 | 0.00 | 0.00 | 70 | 1022.8 |
| 20260507023228 | -17 | 110 | 1.6 | 6.4 | 0.00 | 0.00 | 0.00 | 70 | 1022.8 |
| 20260507022705 | -17 | 116 | 3.2 | 6.4 | 0.00 | 0.00 | 0.00 | 69 | 1022.8 |
| 20260507022142 | -17 | 102 | 1.6 | 4.8 | 0.00 | 0.00 | 0.00 | 69 | 1022.8 |
| 20260507021619 | -17 | 117 | 1.6 | 6.4 | 0.00 | 0.00 | 0.00 | 69 | 1022.8 |
| 20260507021056 | -17 | 110 | 1.6 | 6.4 | 0.00 | 0.00 | 0.00 | 70 | 1022.9 |
| 20260507020533 | -17 | 119 | 0.0 | 6.4 | 0.00 | 0.00 | 0.00 | 70 | 1023.0 |
| 20260507020011 | -17 | 99 | 3.2 | 6.4 | 0.00 | 0.00 | 0.00 | 69 | 1023.0 |
| 20260507015447 | -17 | 102 | 1.6 | 8.0 | 0.00 | 0.00 | 0.00 | 69 | 1022.9 |
| 20260507014924 | -17 | 121 | 0.0 | 8.0 | 0.00 | 0.00 | 0.00 | 68 | 1022.8 |
| 20260507014401 | -17 | 117 | 3.2 | 8.0 | 0.00 | 0.00 | 0.00 | 70 | 1023.1 |
| 20260507013838 | -17 | 130 | 0.0 | 8.0 | 0.00 | 0.00 | 0.00 | 67 | 1022.9 |
| 20260507013315 | -17 | 124 | 1.6 | 8.0 | 0.00 | 0.00 | 0.00 | 70 | 1023.1 |
| 20260507012752 | -17 | 109 | 0.0 | 6.4 | 0.00 | 0.00 | 0.00 | 71 | 1023.2 |
| 20260507012229 | -17 | 120 | 0.0 | 6.4 | 0.00 | 0.00 | 0.00 | 71 | 1023.3 |
| 20260507011706 | -17 | 81 | 1.6 | 9.7 | 0.00 | 0.00 | 0.00 | 70 | 1023.3 |
| 20260507011143 | -17 | 119 | 3.2 | 9.7 | 0.00 | 0.00 | 0.00 | 70 | 1023.2 |
| 20260507010620 | -17 | 91 | 4.8 | 9.7 | 0.00 | 0.00 | 0.00 | 70 | 1023.2 |
| 20260507010058 | -17 | 110 | 3.2 | 9.7 | 0.00 | 0.00 | 0.00 | 71 | 1023.3 |
| 20260507005534 | -17 | 102 | 1.6 | 9.7 | 0.00 | 0.00 | 0.00 | 70 | 1023.3 |
| 20260507005012 | -17 | 109 | 4.8 | 9.7 | 0.00 | 0.00 | 0.00 | 71 | 1023.2 |
| 20260507004447 | -17 | 113 | 3.2 | 9.7 | 0.00 | 0.00 | 0.00 | 72 | 1023.2 |
| 20260507003924 | -17 | 89 | 1.6 | 9.7 | 0.00 | 0.00 | 0.00 | 74 | 1023.2 |
| 20260507003401 | -17 | 98 | 1.6 | 9.7 | 0.00 | 0.00 | 0.00 | 74 | 1023.3 |
| 20260507002841 | -17 | 114 | 3.2 | 9.7 | 0.00 | 0.00 | 0.00 | 75 | 1023.2 |
| 20260507002315 | -17 | 100 | 0.0 | 8.0 | 0.00 | 0.00 | 0.00 | 68 | 1023.2 |
| 20260507001752 | -17 | 92 | 0.0 | 8.0 | 0.00 | 0.00 | 0.00 | 69 | 1023.2 |
| 20260507001230 | -17 | 121 | 1.6 | 8.0 | 0.00 | 0.00 | 0.00 | 69 | 1023.3 |
| 20260507000707 | -17 | 127 | 4.8 | 9.7 | 0.00 | 0.00 | 0.00 | 70 | 1023.2 |
| 20260507000143 | -17 | 113 | 0.0 | 9.7 | 0.00 | 0.00 | 0.00 | 73 | 1023.3 |
| 20260506235621 | -17 | 110 | 0.0 | 8.0 | 0.00 | 0.00 | 0.00 | 73 | 1023.3 |
| 20260506235057 | -17 | 138 | 1.6 | 8.0 | 0.00 | 0.00 | 0.00 | 73 | 1023.3 |
| 20260506234535 | -17 | 123 | 1.6 | 9.7 | 0.00 | 0.00 | 0.00 | 74 | 1023.3 |
| 20260506234011 | -17 | 113 | 3.2 | 9.7 | 0.00 | 0.00 | 0.00 | 74 | 1023.3 |
| 20260506233449 | -17 | 112 | 4.8 | 9.7 | 0.00 | 0.00 | 0.00 | 75 | 1023.4 |
| 20260506232927 | -17 | 110 | 4.8 | 9.7 | 0.00 | 0.00 | 0.00 | 75 | 1023.4 |
| 20260506232402 | -17 | 121 | 0.0 | 9.7 | 0.00 | 0.00 | 0.00 | 75 | 1023.3 |
| 20260506231839 | -17 | 120 | 3.2 | 9.7 | 0.00 | 0.00 | 0.00 | 74 | 1023.4 |
| 20260506231316 | -17 | 133 | 4.8 | 8.0 | 0.00 | 0.00 | 0.00 | 73 | 1023.4 |
| 20260506230753 | -17 | 109 | 1.6 | 9.7 | 0.00 | 0.00 | 0.00 | 70 | 1023.6 |
| 20260506230231 | -17 | 114 | 3.2 | 9.7 | 0.00 | 0.00 | 0.00 | 73 | 1023.8 |
| 20260506225707 | -17 | 144 | 4.8 | 6.4 | 0.00 | 0.00 | 0.00 | 69 | 1023.8 |
| 20260506225145 | -17 | 148 | 0.0 | 6.4 | 0.00 | 0.00 | 0.00 | 69 | 1024.0 |
| 20260506224621 | -17 | 149 | 1.6 | 6.4 | 0.00 | 0.00 | 0.00 | 65 | 1023.6 |
| 20260506224058 | -17 | 145 | 3.2 | 6.4 | 0.00 | 0.00 | 0.00 | 64 | 1023.8 |
| 20260506223535 | -17 | 172 | 1.6 | 6.4 | 0.00 | 0.00 | 0.00 | 65 | 1023.6 |
| 20260506223014 | -17 | 120 | 0.0 | 6.4 | 0.00 | 0.00 | 0.00 | 65 | 1023.8 |
| 20260506222449 | -17 | 116 | 1.6 | 9.7 | 0.00 | 0.00 | 0.00 | 65 | 1023.9 |
| 20260506221926 | -17 | 141 | 0.0 | 9.7 | 0.00 | 0.00 | 0.00 | 64 | 1024.1 |
| 20260506221403 | -17 | 117 | 0.0 | 9.7 | 0.00 | 0.00 | 0.00 | 63 | 1023.8 |
| 20260506220841 | -17 | 29 | 0.0 | 4.8 | 0.00 | 0.00 | 0.00 | 64 | 1023.9 |
| 20260506220317 | -17 | 135 | 0.0 | 3.2 | 0.00 | 0.00 | 0.00 | 62 | 1023.8 |
| 20260506215754 | -17 | 162 | 0.0 | 4.8 | 0.00 | 0.00 | 0.00 | 64 | 1024.0 |
| 20260506215231 | -17 | 133 | 0.0 | 4.8 | 0.00 | 0.00 | 0.00 | 64 | 1023.8 |
| 20260506214708 | -17 | 127 | 0.0 | 1.6 | 0.00 | 0.00 | 0.00 | 63 | 1023.8 |
| 20260506214145 | -17 | 0 | 0.0 | 3.2 | 0.00 | 0.00 | 0.00 | 64 | 1023.9 |
| 20260506213622 | -17 | 130 | 0.0 | 3.2 | 0.00 | 0.00 | 0.00 | 62 | 1023.5 |
| 20260506213059 | -17 | 0 | 0.0 | 3.2 | 0.00 | 0.00 | 0.00 | 60 | 1023.5 |
| 20260506212538 | -17 | 133 | 0.0 | 4.8 | 0.00 | 0.00 | 0.00 | 60 | 1023.6 |
| 20260506212013 | -17 | 127 | 0.0 | 4.8 | 0.00 | 0.00 | 0.00 | 56 | 1023.4 |
| 20260506211450 | -17 | 238 | 1.6 | 4.8 | 0.00 | 0.00 | 0.00 | 60 | 1023.6 |
| 20260506210927 | -17 | 141 | 0.0 | 1.6 | 0.00 | 0.00 | 0.00 | 58 | 1023.5 |
| 20260506210404 | -17 | 190 | 0.0 | 1.6 | 0.00 | 0.00 | 0.00 | 57 | 1023.4 |
| 20260506205841 | -17 | 0 | 0.0 | 6.4 | 0.00 | 0.00 | 0.00 | 58 | 1023.3 |
| 20260506205319 | -17 | 0 | 0.0 | 6.4 | 0.00 | 0.00 | 0.00 | 57 | 1023.4 |
| 20260506204755 | -17 | 186 | 1.6 | 1.6 | 0.00 | 0.00 | 0.00 | 58 | 1023.5 |
| 20260506204232 | -17 | 0 | 0.0 | 0.0 | 0.00 | 0.00 | 0.00 | 59 | 1023.6 |
| 20260506203709 | -17 | 217 | 0.0 | 4.8 | 0.00 | 0.00 | 0.00 | 58 | 1023.2 |
| 20260506203146 | -17 | 51 | 0.0 | 4.8 | 0.00 | 0.00 | 0.00 | 58 | 1023.2 |
| 20260506202624 | -17 | 61 | 0.0 | 6.4 | 0.00 | 0.00 | 0.00 | 60 | 1023.5 |
| 20260506202100 | -17 | 61 | 0.0 | 6.4 | 0.00 | 0.00 | 0.00 | 59 | 1023.5 |
| 20260506201537 | -17 | 46 | 1.6 | 6.4 | 0.00 | 0.00 | 0.00 | 60 | 1023.3 |
| 20260506201014 | -17 | 58 | 0.0 | 4.8 | 0.00 | 0.00 | 0.00 | 57 | 1023.1 |
| 20260506200451 | -17 | 67 | 0.0 | 4.8 | 0.00 | 0.00 | 0.00 | 58 | 1023.4 |
| 20260506195928 | -17 | 0 | 0.0 | 3.2 | 0.00 | 0.00 | 0.00 | 57 | 1023.5 |
| 20260506195405 | -17 | 145 | 0.0 | 3.2 | 0.00 | 0.00 | 0.00 | 56 | 1023.3 |
| 20260506194842 | -17 | 63 | 1.6 | 3.2 | 0.00 | 0.00 | 0.00 | 57 | 1023.3 |
| 20260506194319 | -17 | 12 | 0.0 | 1.6 | 0.00 | 0.00 | 0.00 | 56 | 1023.3 |
| 20260506193756 | -17 | 242 | 0.0 | 0.0 | 0.00 | 0.00 | 0.00 | 55 | 1023.3 |
| 20260506193233 | -17 | 0 | 0.0 | 0.0 | 0.00 | 0.00 | 0.00 | 56 | 1023.3 |
| 20260506192710 | -17 | 0 | 0.0 | 0.0 | 0.00 | 0.00 | 0.00 | 56 | 1023.2 |
| 20260506192149 | -17 | 0 | 0.0 | 0.0 | 0.00 | 0.00 | 0.00 | 59 | 1023.4 |
| 20260506191624 | -17 | 242 | 0.0 | 0.0 | 0.00 | 0.00 | 0.00 | 58 | 1023.4 |
| 20260506191101 | -17 | 0 | 0.0 | 1.6 | 0.00 | 0.00 | 0.00 | 56 | 1023.2 |
| 20260506190538 | -17 | 0 | 0.0 | 1.6 | 0.00 | 0.00 | 0.00 | 58 | 1023.3 |
| 20260506190015 | -17 | 263 | 0.0 | 1.6 | 0.00 | 0.00 | 0.00 | 57 | 1023.2 |
| 20260506185452 | -17 | 106 | 0.0 | 6.4 | 0.00 | 0.00 | 0.00 | 58 | 1023.4 |
| 20260506184930 | -17 | 0 | 0.0 | 6.4 | 0.00 | 0.00 | 0.00 | 57 | 1023.3 |
| 20260506184406 | -17 | 33 | 0.0 | 6.4 | 0.00 | 0.00 | 0.00 | 57 | 1023.3 |
| 20260506183843 | -17 | 0 | 0.0 | 1.6 | 0.00 | 0.00 | 0.00 | 57 | 1023.2 |
| 20260506183320 | -17 | 186 | 0.0 | 1.6 | 0.00 | 0.00 | 0.00 | 59 | 1023.4 |
| 20260506182757 | -17 | 0 | 0.0 | 3.2 | 0.00 | 0.00 | 0.00 | 58 | 1023.2 |
| 20260506182234 | -17 | 176 | 0.0 | 3.2 | 0.00 | 0.00 | 0.00 | 58 | 1022.9 |
| 20260506181711 | -17 | 211 | 0.0 | 1.6 | 0.00 | 0.00 | 0.00 | 57 | 1023.0 |
| 20260506181148 | -17 | 254 | 0.0 | 4.8 | 0.00 | 0.00 | 0.00 | 60 | 1023.2 |
| 20260506180625 | -17 | 253 | 0.0 | 4.8 | 0.00 | 0.00 | 0.00 | 57 | 1023.0 |
| 20260506175540 | -17 | 0 | 0.0 | 0.0 | 0.00 | 0.00 | 0.00 | 61 | 1023.0 |
| 20260506175016 | -17 | 0 | 0.0 | 0.0 | 0.00 | 0.00 | 0.00 | 62 | 1022.8 |
| 20260506174453 | -17 | 0 | 0.0 | 3.2 | 0.00 | 0.00 | 0.00 | 60 | 1022.9 |
| 20260506173930 | -17 | 0 | 0.0 | 3.2 | 0.00 | 0.00 | 0.00 | 59 | 1022.8 |
| 20260506173407 | -17 | 191 | 0.0 | 3.2 | 0.00 | 0.00 | 0.00 | 59 | 1022.7 |
| 20260506172844 | -17 | 281 | 0.0 | 3.2 | 0.00 | 0.00 | 0.00 | 60 | 1022.7 |
| 20260506172321 | -17 | 320 | 0.0 | 3.2 | 0.00 | 0.00 | 0.00 | 61 | 1022.7 |
| 20260506171758 | -17 | 0 | 0.0 | 0.0 | 0.00 | 0.00 | 0.00 | 60 | 1022.6 |
| 20260506171234 | -17 | 0 | 0.0 | 0.0 | 0.00 | 0.00 | 0.00 | 60 | 1022.5 |
| 20260506170712 | -17 | 0 | 0.0 | 0.0 | 0.00 | 0.00 | 0.00 | 62 | 1022.6 |
| 20260506170149 | -17 | 0 | 0.0 | 0.0 | 0.00 | 0.00 | 0.00 | 62 | 1022.7 |
| 20260506165625 | -17 | 0 | 0.0 | 0.0 | 0.00 | 0.00 | 0.00 | 60 | 1022.6 |
| 20260506165102 | -17 | 0 | 0.0 | 0.0 | 0.00 | 0.00 | 0.00 | 62 | 1022.6 |
| 20260506164540 | -17 | 0 | 0.0 | 0.0 | 0.00 | 0.00 | 0.00 | 60 | 1022.4 |
| 20260506164017 | -17 | 0 | 0.0 | 0.0 | 0.00 | 0.00 | 0.00 | 61 | 1022.4 |
| 20260506163454 | -17 | 0 | 0.0 | 0.0 | 0.00 | 0.00 | 0.00 | 65 | 1022.7 |
| 20260506162930 | -17 | 0 | 0.0 | 0.0 | 0.00 | 0.00 | 0.00 | 60 | 1022.1 |
| 20260506162407 | -17 | 0 | 0.0 | 0.0 | 0.00 | 0.00 | 0.00 | 63 | 1022.1 |
| 20260506161845 | -17 | 0 | 0.0 | 0.0 | 0.00 | 0.00 | 0.00 | 60 | 1022.3 |
| 20260506161321 | -17 | 0 | 0.0 | 0.0 | 0.00 | 0.00 | 0.00 | 61 | 1022.3 |
| 20260506160758 | -17 | 0 | 0.0 | 0.0 | 0.00 | 0.00 | 0.00 | 61 | 1022.2 |
| 20260506160235 | -17 | 0 | 0.0 | 0.0 | 0.00 | 0.00 | 0.00 | 62 | 1022.1 |
| 20260506155712 | -17 | 0 | 0.0 | 0.0 | 0.00 | 0.00 | 0.00 | 63 | 1022.3 |
| 20260506155150 | -17 | 0 | 0.0 | 0.0 | 0.00 | 0.00 | 0.00 | 64 | 1022.4 |
| 20260506154626 | -17 | 0 | 0.0 | 0.0 | 0.00 | 0.00 | 0.00 | 62 | 1021.9 |
| 20260506154103 | -17 | 0 | 0.0 | 0.0 | 0.00 | 0.00 | 0.00 | 62 | 1021.9 |
| 20260506153541 | -17 | 0 | 0.0 | 0.0 | 0.00 | 0.00 | 0.00 | 62 | 1021.8 |
| 20260506153017 | -17 | 0 | 0.0 | 0.0 | 0.00 | 0.00 | 0.00 | 62 | 1021.8 |
| 20260506152455 | -17 | 0 | 0.0 | 0.0 | 0.00 | 0.00 | 0.00 | 62 | 1021.6 |
| 20260506151931 | -17 | 0 | 0.0 | 0.0 | 0.00 | 0.00 | 0.00 | 63 | 1021.6 |
| 20260506151408 | -17 | 0 | 0.0 | 0.0 | 0.00 | 0.00 | 0.00 | 64 | 1021.6 |
| 20260506150845 | -17 | 0 | 0.0 | 0.0 | 0.00 | 0.00 | 0.00 | 63 | 1021.7 |
| 20260506150322 | -17 | 0 | 0.0 | 0.0 | 0.00 | 0.00 | 0.00 | 63 | 1021.5 |
| 20260506145759 | -17 | 0 | 0.0 | 0.0 | 0.00 | 0.00 | 0.00 | 63 | 1021.2 |
| 20260506145236 | -17 | 0 | 0.0 | 0.0 | 0.00 | 0.00 | 0.00 | 66 | 1021.7 |
| 20260506144713 | -17 | 0 | 0.0 | 0.0 | 0.00 | 0.00 | 0.00 | 65 | 1022.0 |
| 20260506144151 | -17 | 0 | 0.0 | 0.0 | 0.00 | 0.00 | 0.00 | 62 | 1021.6 |
| 20260506143627 | -17 | 0 | 0.0 | 0.0 | 0.00 | 0.00 | 0.00 | 62 | 1021.8 |
| 20260506143104 | -17 | 0 | 0.0 | 0.0 | 0.00 | 0.00 | 0.00 | 65 | 1021.7 |
| 20260506142541 | -17 | 0 | 0.0 | 0.0 | 0.00 | 0.00 | 0.00 | 65 | 1022.1 |
| 20260506142019 | -17 | 0 | 0.0 | 0.0 | 0.00 | 0.00 | 0.00 | 65 | 1022.0 |
| 20260506141455 | -17 | 0 | 0.0 | 0.0 | 0.00 | 0.00 | 0.00 | 65 | 1021.9 |
| 20260506140932 | -17 | 0 | 0.0 | 0.0 | 0.00 | 0.00 | 0.00 | 65 | 1022.0 |
| 20260506140409 | -17 | 0 | 0.0 | 0.0 | 0.00 | 0.00 | 0.00 | 65 | 1021.9 |
| 20260506135846 | -17 | 0 | 0.0 | 0.0 | 0.00 | 0.00 | 0.00 | 65 | 1021.8 |
| 20260506135325 | -17 | 0 | 0.0 | 0.0 | 0.00 | 0.00 | 0.00 | 65 | 1021.7 |
| 20260506134800 | -17 | 0 | 0.0 | 0.0 | 0.00 | 0.03 | 0.00 | 65 | 1021.4 |
| 20260506134238 | -17 | 0 | 0.0 | 0.0 | 0.00 | 0.03 | 0.00 | 65 | 1021.4 |
| 20260506133715 | -17 | 0 | 0.0 | 0.0 | 0.00 | 0.03 | 0.00 | 65 | 1021.4 |
| 20260506133151 | -17 | 0 | 0.0 | 0.0 | 0.00 | 0.03 | 0.00 | 62 | 1020.9 |
| 20260506132630 | -17 | 0 | 0.0 | 0.0 | 0.00 | 0.03 | 0.00 | 63 | 1020.8 |
| 20260506132106 | -17 | 0 | 0.0 | 0.0 | 0.00 | 0.03 | 0.00 | 63 | 1021.2 |
| 20260506131542 | -17 | 0 | 0.0 | 0.0 | 0.00 | 0.03 | 0.00 | 67 | 1021.5 |
| 20260506131020 | -17 | 0 | 0.0 | 0.0 | 0.00 | 0.03 | 0.00 | 63 | 1021.1 |
| 20260506130457 | -17 | 0 | 0.0 | 0.0 | 0.00 | 0.03 | 0.00 | 63 | 1021.0 |
| 20260506125933 | -17 | 0 | 0.0 | 0.0 | 0.00 | 0.03 | 0.00 | 63 | 1020.8 |
| 20260506125410 | -17 | 0 | 0.0 | 0.0 | 0.00 | 0.03 | 0.00 | 66 | 1021.2 |
| 20260506124847 | -17 | 0 | 0.0 | 0.0 | 0.00 | 0.03 | 0.00 | 66 | 1021.1 |
| 20260506124324 | -17 | 0 | 0.0 | 0.0 | 0.00 | 0.03 | 0.00 | 66 | 1021.0 |
| 20260506123801 | -17 | 0 | 0.0 | 0.0 | 0.00 | 0.03 | 0.00 | 66 | 1021.0 |
| 20260506123238 | -17 | 0 | 0.0 | 0.0 | 0.00 | 0.03 | 0.00 | 63 | 1020.5 |
| 20260506122715 | -17 | 0 | 0.0 | 0.0 | 0.00 | 0.03 | 0.00 | 64 | 1020.5 |
| 20260506122153 | -17 | 0 | 0.0 | 0.0 | 0.00 | 0.03 | 0.00 | 65 | 1020.3 |
| 20260506121629 | -17 | 0 | 0.0 | 0.0 | 0.00 | 0.03 | 0.00 | 67 | 1020.6 |
| 20260506121106 | -17 | 0 | 0.0 | 0.0 | 0.00 | 0.03 | 0.00 | 66 | 1020.9 |
| 20260506120544 | -17 | 0 | 0.0 | 0.0 | 0.00 | 0.03 | 0.00 | 66 | 1020.8 |
| 20260506120020 | -17 | 0 | 0.0 | 0.0 | 0.00 | 0.03 | 0.00 | 66 | 1020.6 |
| 20260506115457 | -17 | 0 | 0.0 | 0.0 | 0.00 | 0.03 | 0.00 | 66 | 1020.9 |
| 20260506114934 | -17 | 147 | 0.0 | 4.8 | 0.00 | 0.03 | 0.00 | 66 | 1021.0 |
| 20260506114413 | -17 | 49 | 0.0 | 4.8 | 0.00 | 0.03 | 0.00 | 66 | 1020.8 |
| 20260506113848 | -17 | 35 | 1.6 | 4.8 | 0.00 | 0.03 | 0.00 | 65 | 1020.9 |
| 20260506113325 | -17 | 1 | 0.0 | 3.2 | 0.00 | 0.03 | 0.00 | 66 | 1020.6 |
| 20260506112802 | -17 | 0 | 0.0 | 0.0 | 0.00 | 0.03 | 0.00 | 66 | 1020.8 |
| 20260506112239 | -17 | 0 | 0.0 | 0.0 | 0.00 | 0.03 | 0.00 | 66 | 1020.8 |
| 20260506111716 | -17 | 0 | 0.0 | 0.0 | 0.00 | 0.03 | 0.00 | 67 | 1020.6 |
| 20260506111153 | -17 | 0 | 0.0 | 0.0 | 0.00 | 0.03 | 0.00 | 67 | 1020.6 |
| 20260506110630 | -17 | 0 | 0.0 | 0.0 | 0.00 | 0.03 | 0.00 | 67 | 1020.6 |
| 20260506110107 | -17 | 0 | 0.0 | 0.0 | 0.00 | 0.03 | 0.00 | 66 | 1020.6 |
| 20260506105544 | -17 | 0 | 0.0 | 0.0 | 0.00 | 0.03 | 0.00 | 66 | 1020.4 |
| 20260506105021 | -17 | 0 | 0.0 | 0.0 | 0.00 | 0.03 | 0.00 | 67 | 1020.3 |
| 20260506104458 | -17 | 0 | 0.0 | 0.0 | 0.00 | 0.03 | 0.00 | 66 | 1020.4 |
| 20260506103935 | -17 | 0 | 0.0 | 4.8 | 0.00 | 0.03 | 0.00 | 66 | 1020.4 |
| 20260506103414 | -17 | 0 | 0.0 | 4.8 | 0.00 | 0.03 | 0.00 | 66 | 1020.2 |
| 20260506102849 | -17 | 46 | 0.0 | 4.8 | 0.00 | 0.03 | 0.00 | 66 | 1020.1 |
| 20260506102326 | -17 | 0 | 0.0 | 0.0 | 0.00 | 0.03 | 0.00 | 67 | 1020.2 |
| 20260506101803 | -17 | 0 | 0.0 | 0.0 | 0.00 | 0.03 | 0.00 | 68 | 1020.3 |
| 20260506101639 | -17 | 0 | 0.0 | 0.0 | 0.00 | 0.03 | 0.00 | 69 | 1020.2 |
| 20260506101240 | -17 | 0 | 0.0 | 0.0 | 0.00 | 0.03 | 0.00 | 69 | 1020.2 |
| 20260506100717 | -17 | 0 | 0.0 | 0.0 | 0.00 | 0.03 | 0.00 | 69 | 1020.1 |
| 20260506100154 | -17 | 0 | 0.0 | 0.0 | 0.00 | 0.03 | 0.00 | 68 | 1020.1 |
| 20260506095631 | -17 | 0 | 0.0 | 0.0 | 0.00 | 0.03 | 0.00 | 68 | 1020.1 |
| 20260506095108 | -17 | 0 | 0.0 | 0.0 | 0.00 | 0.03 | 0.00 | 68 | 1020.0 |
| 20260506094545 | -17 | 0 | 0.0 | 4.8 | 0.00 | 0.03 | 0.00 | 69 | 1019.9 |
| 20260506094022 | -17 | 0 | 0.0 | 4.8 | 0.00 | 0.03 | 0.00 | 69 | 1019.9 |
| 20260506093459 | -17 | 142 | 0.0 | 4.8 | 0.00 | 0.03 | 0.00 | 68 | 1020.0 |
| 20260506092936 | -17 | 135 | 1.6 | 4.8 | 0.00 | 0.03 | 0.00 | 66 | 1019.7 |
| 20260506092413 | -17 | 0 | 0.0 | 0.0 | 0.00 | 0.03 | 0.00 | 67 | 1019.6 |
| 20260506091849 | -17 | 0 | 0.0 | 0.0 | 0.00 | 0.03 | 0.00 | 67 | 1019.6 |
| 20260506091326 | -17 | 0 | 0.0 | 0.0 | 0.00 | 0.03 | 0.00 | 66 | 1019.7 |
| 20260506090803 | -17 | 0 | 0.0 | 0.0 | 0.00 | 0.03 | 0.00 | 66 | 1019.6 |
| 20260506090240 | -17 | 0 | 0.0 | 0.0 | 0.00 | 0.03 | 0.00 | 67 | 1019.6 |
| 20260506085718 | -17 | 0 | 0.0 | 0.0 | 0.00 | 0.03 | 0.00 | 67 | 1019.6 |
| 20260506085155 | -17 | 0 | 0.0 | 3.2 | 0.00 | 0.03 | 0.00 | 67 | 1019.6 |
| 20260506084631 | -17 | 0 | 0.0 | 3.2 | 0.00 | 0.05 | 0.00 | 66 | 1019.6 |
| 20260506084108 | -17 | 149 | 0.0 | 6.4 | 0.00 | 0.05 | 0.00 | 67 | 1019.6 |
| 20260506083547 | -17 | 141 | 0.0 | 6.4 | 0.00 | 0.05 | 0.00 | 65 | 1019.4 |
| 20260506083022 | -17 | 148 | 0.0 | 6.4 | 0.00 | 0.05 | 0.00 | 65 | 1019.3 |
| 20260506082459 | -17 | 0 | 0.0 | 3.2 | 0.00 | 0.05 | 0.00 | 67 | 1019.4 |
| 20260506081937 | -17 | 152 | 0.0 | 3.2 | 0.00 | 0.05 | 0.00 | 67 | 1019.3 |
| 20260506081413 | -17 | 0 | 0.0 | 0.0 | 0.00 | 0.05 | 0.00 | 67 | 1019.3 |
| 20260506080851 | -17 | 0 | 0.0 | 0.0 | 0.00 | 0.05 | 0.00 | 67 | 1019.4 |
| 20260506080327 | -17 | 0 | 0.0 | 0.0 | 0.00 | 0.05 | 0.00 | 67 | 1019.4 |
| 20260506073109 | -17 | 0 | 0.0 | 0.0 | 0.00 | 0.05 | 0.00 | 67 | 1018.9 |
| 20260506072547 | -17 | 0 | 0.0 | 0.0 | 0.00 | 0.05 | 0.00 | 67 | 1019.1 |
| 20260506072023 | -17 | 0 | 0.0 | 0.0 | 0.00 | 0.05 | 0.00 | 67 | 1018.8 |
| 20260506071500 | -17 | 0 | 0.0 | 0.0 | 0.00 | 0.05 | 0.00 | 67 | 1018.7 |
| 20260506070939 | -17 | 0 | 0.0 | 0.0 | 0.00 | 0.05 | 0.00 | 67 | 1018.7 |
| 20260506070415 | -17 | 0 | 0.0 | 0.0 | 0.00 | 0.05 | 0.00 | 67 | 1018.7 |